Location: Basses Si�yes
(44.0835°N, 6.2037°E)
Time: 17:47:50
(UTC+00:00)

Cosmos 1763 Rocket - Pass Details

Date: 27 February 2020
Orbit: 732 x 780 km, 74.0° (Epoch: 05 April)

Event Time Altitude Azimuth Distance (km) Brightness Sun altitude
Rises 18:59:17 0° 206° (SSW) 3,202 7.0 -18.6°
Reaches altitude 10° 19:01:38 10° 209° (SSW) 2,288 6.2 -19.0°
Maximum altitude 19:06:49 68° 292° (WNW) 828 3.8 -19.9°
Drops below altitude 10° 19:12:06 10° 16° (NNE) 2,332 5.9 -20.8°
Sets 19:14:31 0° 19° (NNE) 3,268 6.7 -21.3°
